AFV224 HKJK-FQNC

Flight info

Callsign AFV224
Flight time 2h 0m
Altitude 41000
Route APNOM2E GABSO UL445 DV UN306 EGNAX DCT ETKAD ETKAD1B
Aircraft B738/M-SDE2E3FGHIRWXY/LB1

Departure

Time 2026-04-19 09:28
Airport Jomo Kenyatta International Airport (HKJK)

Arrival

Time 2026-04-19 11:29
Airport Nacala International Airport (FQNC)
Time Latitude Longitude Altitude Speed Heading
2026-04-19 09:06 -1.32937 36.92321 5341 ft 0 kts 122°
2026-04-19 09:16 -1.32936 36.92320 5340 ft 2 kts 122°
2026-04-19 09:17 -1.32928 36.92306 5340 ft 2 kts 120°
2026-04-19 09:17 -1.32920 36.92292 5340 ft 2 kts 118°
2026-04-19 09:17 -1.32913 36.92277 5341 ft 2 kts 111°
2026-04-19 09:17 -1.32909 36.92261 5342 ft 2 kts 78°
2026-04-19 09:18 -1.32917 36.92250 5340 ft 1 kts 26°
2026-04-19 09:18 -1.32919 36.92249 5340 ft 0 kts 25°
2026-04-19 09:20 -1.32917 36.92250 5340 ft 1 kts 25°
2026-04-19 09:20 -1.32912 36.92252 5340 ft 1 kts 25°
2026-04-19 09:21 -1.32902 36.92257 5341 ft 2 kts 25°
2026-04-19 09:21 -1.32888 36.92264 5340 ft 3 kts 25°
2026-04-19 09:21 -1.32871 36.92275 5340 ft 4 kts 41°
2026-04-19 09:21 -1.32846 36.92299 5341 ft 5 kts 45°
2026-04-19 09:22 -1.32819 36.92328 5340 ft 6 kts 49°
2026-04-19 09:22 -1.32796 36.92358 5340 ft 6 kts 52°
2026-04-19 09:22 -1.32767 36.92383 5338 ft 6 kts 21°
2026-04-19 09:22 -1.32729 36.92380 5338 ft 7 kts 334°
2026-04-19 09:23 -1.32686 36.92355 5339 ft 7 kts 328°
2026-04-19 09:23 -1.32637 36.92365 5342 ft 9 kts 38°
2026-04-19 09:23 -1.32582 36.92434 5337 ft 18 kts 55°
2026-04-19 09:23 -1.32502 36.92546 5334 ft 20 kts 54°
2026-04-19 09:24 -1.32420 36.92658 5333 ft 20 kts 54°
2026-04-19 09:24 -1.32341 36.92767 5334 ft 19 kts 54°
2026-04-19 09:24 -1.32266 36.92873 5333 ft 18 kts 55°
2026-04-19 09:24 -1.32192 36.92974 5322 ft 18 kts 54°
2026-04-19 09:25 -1.32119 36.93070 5320 ft 17 kts 52°
2026-04-19 09:25 -1.32050 36.93165 5323 ft 16 kts 53°
2026-04-19 09:25 -1.31984 36.93255 5321 ft 16 kts 53°
2026-04-19 09:25 -1.31919 36.93341 5316 ft 15 kts 53°
2026-04-19 09:26 -1.31857 36.93425 5320 ft 15 kts 53°
2026-04-19 09:26 -1.31780 36.93477 5316 ft 14 kts 353°
2026-04-19 09:26 -1.31700 36.93429 5315 ft 13 kts 322°
2026-04-19 09:26 -1.31626 36.93376 5317 ft 13 kts 324°
2026-04-19 09:27 -1.31557 36.93327 5312 ft 11 kts 325°
2026-04-19 09:27 -1.31537 36.93313 5319 ft 1 kts 314°
2026-04-19 09:27 -1.31538 36.93308 5319 ft 1 kts 261°
2026-04-19 09:27 -1.31547 36.93296 5317 ft 10 kts 236°
2026-04-19 09:28 -1.31783 36.92975 5322 ft 104 kts 234°
2026-04-19 09:28 -1.32372 36.92153 5363 ft 181 kts 233°
2026-04-19 09:28 -1.33130 36.91083 6356 ft 193 kts 230°
2026-04-19 09:28 -1.33961 36.90002 7318 ft 200 kts 223°
2026-04-19 09:29 -1.35213 36.89244 7866 ft 224 kts 194°
2026-04-19 09:29 -1.36690 36.88784 8933 ft 212 kts 194°
2026-04-19 09:29 -1.38049 36.88325 10047 ft 216 kts 193°
2026-04-19 09:29 -1.39641 36.87764 10006 ft 267 kts 196°
2026-04-19 09:30 -1.41492 36.87065 10073 ft 300 kts 198°
2026-04-19 09:30 -1.43568 36.86228 10138 ft 344 kts 201°
2026-04-19 09:30 -1.45913 36.85217 10175 ft 383 kts 201°
2026-04-19 09:30 -1.48357 36.84161 11320 ft 387 kts 200°
2026-04-19 09:31 -1.50823 36.83354 11964 ft 368 kts 186°
2026-04-19 09:31 -1.53410 36.83422 12634 ft 377 kts 162°
2026-04-19 09:31 -1.55710 36.84544 14077 ft 358 kts 141°
2026-04-19 09:31 -1.57641 36.85913 16152 ft 324 kts 143°
2026-04-19 09:32 -1.59510 36.87076 17643 ft 312 kts 146°
2026-04-19 09:32 -1.61428 36.88165 18255 ft 326 kts 147°
2026-04-19 09:32 -1.63500 36.89307 18398 ft 350 kts 148°
2026-04-19 09:32 -1.65701 36.90511 18554 ft 371 kts 148°
2026-04-19 09:33 -1.68006 36.91770 18951 ft 381 kts 148°
2026-04-19 09:33 -1.70337 36.93046 19557 ft 384 kts 148°
2026-04-19 09:33 -1.72684 36.94335 20163 ft 387 kts 148°
2026-04-19 09:33 -1.75057 36.95644 20730 ft 391 kts 148°
2026-04-19 09:34 -1.77444 36.96964 21323 ft 393 kts 148°
2026-04-19 09:34 -1.79848 36.98295 21921 ft 396 kts 148°
2026-04-19 09:34 -1.82236 36.99619 22468 ft 400 kts 148°
2026-04-19 09:34 -1.84682 37.00977 22943 ft 405 kts 148°
2026-04-19 09:35 -1.87195 37.02372 23444 ft 409 kts 149°
2026-04-19 09:35 -1.89658 37.03739 23956 ft 414 kts 149°
2026-04-19 09:35 -1.92190 37.05144 24514 ft 417 kts 149°
2026-04-19 09:35 -1.94735 37.06556 25026 ft 418 kts 149°
2026-04-19 09:36 -1.97282 37.07969 25422 ft 422 kts 149°
2026-04-19 09:36 -1.99868 37.09404 25791 ft 426 kts 149°
2026-04-19 09:36 -2.02460 37.10842 26242 ft 427 kts 149°
2026-04-19 09:36 -2.05062 37.12286 26720 ft 429 kts 149°
2026-04-19 09:37 -2.07685 37.13741 27064 ft 433 kts 149°
2026-04-19 09:37 -2.10328 37.15210 27367 ft 438 kts 149°
2026-04-19 09:37 -2.13007 37.16698 27694 ft 442 kts 149°
2026-04-19 09:37 -2.15702 37.18193 28110 ft 443 kts 149°
2026-04-19 09:38 -2.18400 37.19691 28511 ft 445 kts 149°
2026-04-19 09:38 -2.21115 37.21197 28894 ft 446 kts 149°
2026-04-19 09:38 -2.23840 37.22710 29220 ft 450 kts 150°
2026-04-19 09:38 -2.26588 37.24236 29518 ft 453 kts 149°
2026-04-19 09:39 -2.29346 37.25767 29928 ft 454 kts 149°
2026-04-19 09:39 -2.32111 37.27302 30214 ft 457 kts 150°
2026-04-19 09:39 -2.34909 37.28857 30394 ft 461 kts 150°
2026-04-19 09:39 -2.37725 37.30421 30686 ft 463 kts 149°
2026-04-19 09:40 -2.40537 37.31982 31056 ft 462 kts 150°
2026-04-19 09:40 -2.43356 37.33548 31291 ft 465 kts 150°
2026-04-19 09:40 -2.46190 37.35121 31600 ft 466 kts 150°
2026-04-19 09:40 -2.49030 37.36699 31871 ft 468 kts 149°
2026-04-19 09:41 -2.51883 37.38284 32134 ft 469 kts 150°
2026-04-19 09:41 -2.54742 37.39872 32390 ft 472 kts 150°
2026-04-19 09:41 -2.57600 37.41460 32812 ft 469 kts 150°
2026-04-19 09:41 -2.60448 37.43042 33228 ft 468 kts 150°
2026-04-19 09:42 -2.63294 37.44623 33591 ft 467 kts 150°
2026-04-19 09:42 -2.66142 37.46205 33906 ft 468 kts 150°
2026-04-19 09:42 -2.68995 37.47791 34252 ft 469 kts 150°
2026-04-19 09:42 -2.71839 37.49371 34578 ft 468 kts 150°
2026-04-19 09:43 -2.74690 37.50956 34952 ft 466 kts 150°
2026-04-19 09:43 -2.77502 37.52519 35343 ft 464 kts 150°
2026-04-19 09:43 -2.80317 37.54084 35764 ft 462 kts 150°
2026-04-19 09:43 -2.83123 37.55644 36102 ft 461 kts 150°
2026-04-19 09:44 -2.85939 37.57175 36456 ft 460 kts 153°
2026-04-19 09:44 -2.88822 37.58557 36772 ft 460 kts 155°
2026-04-19 09:44 -2.91745 37.59874 37135 ft 459 kts 155°
2026-04-19 09:44 -2.94659 37.61157 37548 ft 457 kts 155°
2026-04-19 09:45 -2.97566 37.62438 37861 ft 456 kts 155°
2026-04-19 09:45 -3.00467 37.63725 38187 ft 455 kts 155°
2026-04-19 09:45 -3.03361 37.65021 38476 ft 455 kts 155°
2026-04-19 09:45 -3.06248 37.66322 38708 ft 457 kts 155°
2026-04-19 09:46 -3.09152 37.67635 38926 ft 457 kts 154°
2026-04-19 09:46 -3.12046 37.68946 39204 ft 456 kts 155°
2026-04-19 09:46 -3.14928 37.70252 39486 ft 455 kts 154°
2026-04-19 09:46 -3.17808 37.71557 39724 ft 454 kts 154°
2026-04-19 09:47 -3.20694 37.72866 39890 ft 456 kts 155°
2026-04-19 09:47 -3.23542 37.74156 40106 ft 456 kts 154°
2026-04-19 09:47 -3.26428 37.75464 40335 ft 455 kts 154°
2026-04-19 09:47 -3.29313 37.76771 40557 ft 455 kts 154°
2026-04-19 09:48 -3.32194 37.78075 40801 ft 454 kts 154°
2026-04-19 09:48 -3.35067 37.79377 41062 ft 452 kts 154°
2026-04-19 09:48 -3.37945 37.80681 41036 ft 455 kts 154°
2026-04-19 09:49 -3.43715 37.83296 41039 ft 454 kts 154°
2026-04-19 09:49 -3.49456 37.85898 41044 ft 452 kts 154°
2026-04-19 09:50 -3.55175 37.88491 41046 ft 450 kts 154°
2026-04-19 09:50 -3.60977 37.90795 41034 ft 450 kts 163°
2026-04-19 09:51 -3.67048 37.92323 41037 ft 450 kts 165°
2026-04-19 09:51 -3.73116 37.93856 41039 ft 450 kts 164°
2026-04-19 09:52 -3.79188 37.95458 41038 ft 451 kts 164°
2026-04-19 09:52 -3.85179 37.97369 41042 ft 452 kts 157°
2026-04-19 09:53 -3.91019 37.99748 41040 ft 454 kts 157°
2026-04-19 09:53 -3.96865 38.02165 41028 ft 456 kts 157°
2026-04-19 09:54 -4.02746 38.04549 41028 ft 457 kts 157°
2026-04-19 09:54 -4.08663 38.06920 41035 ft 458 kts 157°
2026-04-19 09:55 -4.14585 38.09286 41022 ft 459 kts 158°
2026-04-19 09:55 -4.19511 38.11254 41018 ft 458 kts 157°
2026-04-19 09:56 -4.25426 38.13620 41020 ft 458 kts 158°
2026-04-19 09:56 -4.31337 38.15985 41018 ft 457 kts 158°
2026-04-19 09:57 -4.37234 38.18345 41026 ft 455 kts 158°
2026-04-19 09:57 -4.43085 38.20687 41016 ft 454 kts 158°
2026-04-19 09:58 -4.48948 38.23034 41016 ft 453 kts 158°
2026-04-19 09:58 -4.54793 38.25374 41023 ft 453 kts 158°
2026-04-19 09:59 -4.60642 38.27717 41027 ft 452 kts 158°
2026-04-19 09:59 -4.66487 38.30058 41033 ft 453 kts 158°
2026-04-19 10:00 -4.72357 38.32410 41020 ft 454 kts 158°
2026-04-19 10:00 -4.78237 38.34766 41024 ft 456 kts 158°
2026-04-19 10:01 -4.84128 38.37127 41017 ft 456 kts 158°
2026-04-19 10:01 -4.90027 38.39492 41024 ft 456 kts 158°
2026-04-19 10:02 -4.95912 38.41852 41022 ft 455 kts 158°
2026-04-19 10:02 -5.01742 38.44190 41008 ft 455 kts 158°
2026-04-19 10:03 -5.07667 38.46566 41020 ft 454 kts 158°
2026-04-19 10:03 -5.13544 38.48917 40989 ft 455 kts 158°
2026-04-19 10:04 -5.19414 38.51266 40991 ft 454 kts 158°
2026-04-19 10:04 -5.25286 38.53616 40991 ft 454 kts 158°
2026-04-19 10:05 -5.31128 38.55955 40984 ft 455 kts 158°
2026-04-19 10:05 -5.37000 38.58307 40979 ft 455 kts 158°
2026-04-19 10:06 -5.42876 38.60661 40975 ft 455 kts 158°
2026-04-19 10:06 -5.48760 38.63019 40968 ft 455 kts 158°
2026-04-19 10:07 -5.54639 38.65375 40974 ft 455 kts 158°
2026-04-19 10:07 -5.60520 38.67733 40959 ft 455 kts 158°
2026-04-19 10:08 -5.66416 38.70097 40967 ft 456 kts 158°
2026-04-19 10:08 -5.72313 38.72462 40954 ft 456 kts 158°
2026-04-19 10:09 -5.78209 38.74828 40960 ft 456 kts 158°
2026-04-19 10:09 -5.84112 38.77196 40950 ft 456 kts 158°
2026-04-19 10:10 -5.90014 38.79565 40946 ft 457 kts 158°
2026-04-19 10:10 -5.95879 38.81919 40952 ft 456 kts 158°
2026-04-19 10:11 -6.01808 38.84300 40945 ft 456 kts 158°
2026-04-19 10:11 -6.07702 38.86667 40946 ft 455 kts 158°
2026-04-19 10:12 -6.13542 38.89013 40939 ft 455 kts 158°
2026-04-19 10:12 -6.19411 38.91371 40937 ft 454 kts 158°
2026-04-19 10:13 -6.25281 38.93730 40949 ft 454 kts 158°
2026-04-19 10:13 -6.31144 38.96087 40946 ft 454 kts 158°
2026-04-19 10:14 -6.37007 38.98445 40949 ft 454 kts 158°
2026-04-19 10:14 -6.42868 39.00802 40948 ft 454 kts 158°
2026-04-19 10:15 -6.48734 39.03162 40951 ft 454 kts 158°
2026-04-19 10:15 -6.54600 39.05523 40964 ft 454 kts 158°
2026-04-19 10:16 -6.60476 39.07888 40955 ft 455 kts 158°
2026-04-19 10:16 -6.66360 39.10257 40962 ft 456 kts 158°
2026-04-19 10:17 -6.72244 39.12627 40959 ft 456 kts 158°
2026-04-19 10:17 -6.78104 39.14988 40971 ft 457 kts 158°
2026-04-19 10:18 -6.84007 39.17367 40981 ft 457 kts 158°
2026-04-19 10:18 -6.89939 39.19703 40965 ft 458 kts 162°
2026-04-19 10:19 -6.99133 39.22339 40977 ft 458 kts 165°
2026-04-19 10:19 -7.05292 39.24011 40975 ft 458 kts 165°
2026-04-19 10:20 -7.11449 39.25731 40971 ft 458 kts 165°
2026-04-19 10:20 -7.17583 39.27472 40965 ft 458 kts 165°
2026-04-19 10:21 -7.23714 39.29218 40960 ft 457 kts 165°
2026-04-19 10:21 -7.29839 39.30963 40960 ft 457 kts 165°
2026-04-19 10:22 -7.35952 39.32703 40970 ft 456 kts 165°
2026-04-19 10:22 -7.42069 39.34445 40948 ft 456 kts 165°
2026-04-19 10:23 -7.48167 39.36181 40962 ft 455 kts 165°
2026-04-19 10:23 -7.54269 39.37918 40961 ft 455 kts 165°
2026-04-19 10:24 -7.60354 39.39652 40951 ft 455 kts 165°
2026-04-19 10:24 -7.66445 39.41388 40955 ft 454 kts 165°
2026-04-19 10:25 -7.72526 39.43122 40943 ft 454 kts 165°
2026-04-19 10:25 -7.78606 39.44855 40953 ft 454 kts 165°
2026-04-19 10:26 -7.84685 39.46589 40952 ft 454 kts 165°
2026-04-19 10:26 -7.90767 39.48325 40941 ft 454 kts 165°
2026-04-19 10:27 -7.96855 39.50061 40944 ft 454 kts 165°
2026-04-19 10:27 -8.02933 39.51797 40938 ft 454 kts 166°
2026-04-19 10:28 -8.08984 39.53524 40945 ft 454 kts 165°
2026-04-19 10:28 -8.15110 39.55275 40946 ft 454 kts 166°
2026-04-19 10:29 -8.21157 39.57005 40943 ft 454 kts 166°
2026-04-19 10:29 -8.27236 39.58743 40930 ft 455 kts 166°
2026-04-19 10:30 -8.33329 39.60485 40934 ft 454 kts 166°
2026-04-19 10:30 -8.39409 39.62225 40937 ft 454 kts 166°
2026-04-19 10:31 -8.45490 39.63965 40933 ft 454 kts 166°
2026-04-19 10:31 -8.51578 39.65709 40937 ft 455 kts 166°
2026-04-19 10:32 -8.57662 39.67466 40935 ft 455 kts 166°
2026-04-19 10:32 -8.63746 39.69228 40936 ft 454 kts 166°
2026-04-19 10:33 -8.69825 39.70988 40944 ft 454 kts 166°
2026-04-19 10:33 -8.75903 39.72748 40943 ft 454 kts 166°
2026-04-19 10:34 -8.81984 39.74508 40931 ft 454 kts 166°
2026-04-19 10:34 -8.88012 39.76254 40936 ft 454 kts 166°
2026-04-19 10:35 -8.94077 39.78012 40934 ft 453 kts 166°
2026-04-19 10:35 -9.00145 39.79770 40933 ft 453 kts 166°
2026-04-19 10:36 -9.06194 39.81524 40950 ft 452 kts 166°
2026-04-19 10:36 -9.12240 39.83278 40931 ft 452 kts 166°
2026-04-19 10:37 -9.18282 39.85031 40934 ft 452 kts 166°
2026-04-19 10:37 -9.24326 39.86785 40940 ft 452 kts 166°
2026-04-19 10:38 -9.30376 39.88542 40938 ft 452 kts 166°
2026-04-19 10:38 -9.36411 39.90295 40935 ft 452 kts 166°
2026-04-19 10:39 -9.42464 39.92053 40936 ft 452 kts 166°
2026-04-19 10:39 -9.48506 39.93809 40934 ft 452 kts 166°
2026-04-19 10:40 -9.54558 39.95569 40934 ft 452 kts 166°
2026-04-19 10:40 -9.60564 39.97316 40940 ft 452 kts 166°
2026-04-19 10:41 -9.66612 39.99076 40933 ft 452 kts 166°
2026-04-19 10:41 -9.72662 40.00837 40933 ft 452 kts 166°
2026-04-19 10:42 -9.78712 40.02599 40935 ft 452 kts 166°
2026-04-19 10:42 -9.84767 40.04363 40937 ft 453 kts 167°
2026-04-19 10:43 -9.89801 40.05830 40936 ft 453 kts 167°
2026-04-19 10:43 -9.95899 40.07608 40934 ft 453 kts 167°
2026-04-19 10:44 -10.01917 40.09363 40934 ft 453 kts 167°
2026-04-19 10:44 -10.07972 40.11130 40934 ft 452 kts 167°
2026-04-19 10:45 -10.14025 40.12897 40934 ft 452 kts 167°
2026-04-19 10:45 -10.20078 40.14665 40931 ft 452 kts 167°
2026-04-19 10:46 -10.26124 40.16431 40932 ft 452 kts 167°
2026-04-19 10:46 -10.32169 40.18194 40933 ft 452 kts 168°
2026-04-19 10:47 -10.38325 40.19186 40939 ft 447 kts 178°
2026-04-19 10:47 -10.44517 40.19755 40940 ft 447 kts 178°
2026-04-19 10:48 -10.50711 40.20376 40938 ft 447 kts 177°
2026-04-19 10:48 -10.56864 40.21038 40937 ft 447 kts 177°
2026-04-19 10:49 -10.63047 40.21711 40936 ft 447 kts 176°
2026-04-19 10:49 -10.69190 40.22728 40948 ft 448 kts 172°
2026-04-19 10:50 -10.75319 40.23921 40937 ft 448 kts 172°
2026-04-19 10:50 -10.81446 40.25093 40943 ft 447 kts 173°
2026-04-19 10:51 -10.87570 40.26233 40937 ft 447 kts 173°
2026-04-19 10:51 -10.93692 40.27362 40942 ft 447 kts 173°
2026-04-19 10:52 -10.99820 40.28492 40945 ft 447 kts 173°
2026-04-19 10:52 -11.05938 40.29622 40941 ft 447 kts 173°
2026-04-19 10:53 -11.12057 40.30753 40942 ft 447 kts 173°
2026-04-19 10:53 -11.18173 40.31885 40941 ft 446 kts 173°
2026-04-19 10:54 -11.24284 40.33015 40941 ft 446 kts 173°
2026-04-19 10:54 -11.30392 40.34146 40941 ft 446 kts 173°
2026-04-19 10:55 -11.36465 40.35223 40937 ft 445 kts 175°
2026-04-19 10:55 -11.42607 40.35939 40940 ft 444 kts 177°
2026-04-19 10:56 -11.48757 40.36549 40945 ft 444 kts 177°
2026-04-19 10:56 -11.54897 40.37182 40940 ft 444 kts 177°
2026-04-19 10:57 -11.61047 40.37843 40936 ft 444 kts 177°
2026-04-19 10:57 -11.67189 40.38515 40939 ft 444 kts 177°
2026-04-19 10:58 -11.73334 40.39189 40937 ft 444 kts 177°
2026-04-19 10:58 -11.79470 40.39862 40935 ft 444 kts 177°
2026-04-19 10:59 -11.85615 40.40535 40932 ft 444 kts 177°
2026-04-19 10:59 -11.91753 40.41208 40933 ft 444 kts 177°
2026-04-19 11:00 -11.97216 40.41807 40937 ft 443 kts 177°
2026-04-19 11:00 -11.99257 40.42031 40939 ft 443 kts 177°
2026-04-19 11:01 -12.05391 40.42704 40941 ft 443 kts 177°
2026-04-19 11:01 -12.11527 40.43378 40935 ft 443 kts 177°
2026-04-19 11:02 -12.17662 40.44050 40345 ft 451 kts 177°
2026-04-19 11:02 -12.20766 40.44391 39791 ft 448 kts 177°
2026-04-19 11:02 -12.23868 40.44732 39216 ft 448 kts 177°
2026-04-19 11:03 -12.26975 40.45074 38599 ft 448 kts 177°
2026-04-19 11:03 -12.30081 40.45416 37881 ft 449 kts 176°
2026-04-19 11:03 -12.33185 40.45757 37231 ft 448 kts 176°
2026-04-19 11:03 -12.36285 40.46098 36590 ft 447 kts 176°
2026-04-19 11:04 -12.39379 40.46439 35939 ft 447 kts 176°
2026-04-19 11:04 -12.42470 40.46779 35236 ft 448 kts 176°
2026-04-19 11:04 -12.45581 40.47121 34493 ft 451 kts 175°
2026-04-19 11:04 -12.48687 40.47463 33979 ft 447 kts 175°
2026-04-19 11:05 -12.51729 40.47798 33386 ft 445 kts 175°
2026-04-19 11:05 -12.54792 40.48136 32853 ft 440 kts 175°
2026-04-19 11:05 -12.57825 40.48470 32333 ft 436 kts 175°
2026-04-19 11:05 -12.60834 40.48802 31829 ft 432 kts 175°
2026-04-19 11:06 -12.63814 40.49131 31333 ft 428 kts 174°
2026-04-19 11:06 -12.66761 40.49455 30847 ft 425 kts 174°
2026-04-19 11:06 -12.69692 40.49778 30363 ft 422 kts 174°
2026-04-19 11:06 -12.72598 40.50099 29834 ft 419 kts 174°
2026-04-19 11:07 -12.75485 40.50417 29283 ft 415 kts 174°
2026-04-19 11:07 -12.78347 40.50733 28751 ft 411 kts 174°
2026-04-19 11:07 -12.81181 40.51046 28248 ft 407 kts 173°
2026-04-19 11:07 -12.83985 40.51355 27742 ft 403 kts 173°
2026-04-19 11:08 -12.86758 40.51661 27261 ft 399 kts 173°
2026-04-19 11:08 -12.89504 40.51964 26776 ft 396 kts 173°
2026-04-19 11:08 -12.92231 40.52266 26292 ft 392 kts 173°
2026-04-19 11:08 -12.94931 40.52564 25815 ft 389 kts 173°
2026-04-19 11:09 -12.97627 40.52862 25340 ft 386 kts 173°
2026-04-19 11:09 -13.00253 40.53152 24868 ft 384 kts 173°
2026-04-19 11:09 -13.02899 40.53444 24380 ft 382 kts 172°
2026-04-19 11:09 -13.05537 40.53736 23899 ft 380 kts 172°
2026-04-19 11:10 -13.08163 40.54026 23391 ft 378 kts 172°
2026-04-19 11:10 -13.10781 40.54317 22850 ft 376 kts 172°
2026-04-19 11:10 -13.13364 40.54603 22352 ft 373 kts 172°
2026-04-19 11:10 -13.15933 40.54887 21872 ft 369 kts 173°
2026-04-19 11:11 -13.18480 40.55169 21403 ft 366 kts 173°
2026-04-19 11:11 -13.21003 40.55449 20939 ft 364 kts 173°
2026-04-19 11:11 -13.23510 40.55727 20482 ft 362 kts 173°
2026-04-19 11:11 -13.26003 40.56003 20024 ft 360 kts 173°
2026-04-19 11:12 -13.28489 40.56279 19569 ft 358 kts 173°
2026-04-19 11:12 -13.30965 40.56553 19094 ft 357 kts 173°
2026-04-19 11:12 -13.33432 40.56827 18632 ft 356 kts 174°
2026-04-19 11:12 -13.35895 40.57100 18157 ft 356 kts 174°
2026-04-19 11:13 -13.38355 40.57373 17657 ft 354 kts 174°
2026-04-19 11:13 -13.40801 40.57644 17182 ft 352 kts 174°
2026-04-19 11:13 -13.43223 40.57912 16723 ft 349 kts 173°
2026-04-19 11:13 -13.45633 40.58179 16269 ft 347 kts 173°
2026-04-19 11:14 -13.48020 40.58444 15831 ft 344 kts 173°
2026-04-19 11:14 -13.50365 40.58705 15401 ft 342 kts 173°
2026-04-19 11:14 -13.52724 40.58967 14959 ft 340 kts 173°
2026-04-19 11:14 -13.55069 40.59227 14517 ft 338 kts 173°
2026-04-19 11:15 -13.57404 40.59486 14077 ft 337 kts 173°
2026-04-19 11:15 -13.59726 40.59745 13593 ft 336 kts 173°
2026-04-19 11:15 -13.62043 40.60002 13135 ft 334 kts 173°
2026-04-19 11:15 -13.64339 40.60257 12685 ft 331 kts 173°
2026-04-19 11:16 -13.66618 40.60511 12248 ft 328 kts 173°
2026-04-19 11:16 -13.68887 40.60763 11816 ft 326 kts 173°
2026-04-19 11:16 -13.71131 40.61013 11389 ft 324 kts 173°
2026-04-19 11:16 -13.73366 40.61262 10966 ft 322 kts 173°
2026-04-19 11:17 -13.75585 40.61508 10550 ft 320 kts 173°
2026-04-19 11:17 -13.77767 40.61751 10342 ft 311 kts 173°
2026-04-19 11:17 -13.79889 40.61990 10184 ft 301 kts 172°
2026-04-19 11:17 -13.81900 40.62405 10048 ft 291 kts 165°
2026-04-19 11:18 -13.83825 40.62958 9865 ft 284 kts 163°
2026-04-19 11:18 -13.85718 40.63531 9534 ft 283 kts 163°
2026-04-19 11:18 -13.87598 40.64098 9223 ft 281 kts 163°
2026-04-19 11:18 -13.89470 40.64655 8901 ft 279 kts 163°
2026-04-19 11:19 -13.91332 40.65201 8596 ft 278 kts 163°
2026-04-19 11:19 -13.93189 40.65741 8277 ft 277 kts 163°
2026-04-19 11:19 -13.95042 40.66276 7967 ft 275 kts 163°
2026-04-19 11:19 -13.96882 40.66805 7661 ft 274 kts 163°
2026-04-19 11:20 -13.98716 40.67331 7362 ft 273 kts 163°
2026-04-19 11:20 -14.00536 40.67852 7094 ft 270 kts 162°
2026-04-19 11:20 -14.02364 40.68375 6722 ft 273 kts 162°
2026-04-19 11:20 -14.04191 40.68898 6412 ft 273 kts 162°
2026-04-19 11:21 -14.06017 40.69419 6091 ft 272 kts 162°
2026-04-19 11:21 -14.07837 40.69940 5769 ft 271 kts 162°
2026-04-19 11:21 -14.09654 40.70459 5452 ft 270 kts 162°
2026-04-19 11:22 -14.13260 40.71490 4840 ft 268 kts 162°
2026-04-19 11:22 -14.15028 40.71995 4523 ft 267 kts 162°
2026-04-19 11:22 -14.16813 40.72506 4218 ft 266 kts 163°
2026-04-19 11:22 -14.18587 40.73012 4084 ft 257 kts 163°
2026-04-19 11:23 -14.20273 40.73473 3954 ft 251 kts 168°
2026-04-19 11:23 -14.21994 40.73473 3844 ft 245 kts 184°
2026-04-19 11:23 -14.23664 40.73299 3738 ft 238 kts 183°
2026-04-19 11:23 -14.25286 40.73150 3640 ft 229 kts 183°
2026-04-19 11:24 -14.26826 40.73015 3564 ft 215 kts 181°
2026-04-19 11:24 -14.28270 40.72897 3480 ft 202 kts 182°
2026-04-19 11:24 -14.29645 40.72788 3335 ft 197 kts 182°
2026-04-19 11:24 -14.30990 40.72682 3171 ft 190 kts 182°
2026-04-19 11:25 -14.32284 40.72578 3003 ft 184 kts 182°
2026-04-19 11:25 -14.33531 40.72471 2926 ft 174 kts 182°
2026-04-19 11:25 -14.34739 40.72372 2689 ft 172 kts 181°
2026-04-19 11:25 -14.35919 40.72275 2484 ft 169 kts 182°
2026-04-19 11:26 -14.37075 40.72181 2291 ft 166 kts 181°
2026-04-19 11:26 -14.38218 40.72088 2071 ft 163 kts 181°
2026-04-19 11:26 -14.39357 40.71996 1860 ft 166 kts 182°
2026-04-19 11:26 -14.40489 40.71904 1667 ft 160 kts 181°
2026-04-19 11:27 -14.41612 40.71813 1445 ft 163 kts 182°
2026-04-19 11:27 -14.42731 40.71721 1260 ft 158 kts 181°
2026-04-19 11:27 -14.43788 40.71635 1034 ft 147 kts 181°
2026-04-19 11:27 -14.44772 40.71557 872 ft 142 kts 181°
2026-04-19 11:28 -14.45778 40.71476 646 ft 147 kts 183°
2026-04-19 11:28 -14.46756 40.71389 485 ft 134 kts 181°
2026-04-19 11:28 -14.47670 40.71315 353 ft 125 kts 181°
2026-04-19 11:28 -14.48425 40.71257 368 ft 88 kts 185°
2026-04-19 11:29 -14.48887 40.71219 379 ft 44 kts 185°
2026-04-19 11:29 -14.49123 40.71149 384 ft 33 kts 210°
2026-04-19 11:29 -14.49210 40.71090 387 ft 0 kts 213°
2026-04-19 11:30 -14.49258 40.71056 386 ft 13 kts 214°
2026-04-19 11:30 -14.49313 40.70987 388 ft 13 kts 265°
2026-04-19 11:30 -14.49307 40.70895 388 ft 13 kts 272°
2026-04-19 11:30 -14.49303 40.70807 388 ft 10 kts 275°
2026-04-19 11:31 -14.49298 40.70750 389 ft 0 kts 274°